Hourly Data Report for September 26, 2017

All times are specified in Local Standard Time (LST). Add 1 hour to adjust for Daylight Saving Time where and when it is observed.

RANKIN INLET A
NUNAVUT

62°48'38.000" N
92°06'53.000" W
32.30 m
2303405
71083
YRT

Download Data

Hourly Data (September 2017)
Hourly Data Report for September 26, 2017
Temp Definition
°C
Dew Point Temp Definition
°C
Rel Hum Definition
%
Wind Dir Definition
10's deg

Wind Spd Definition
km/h
Visibility Definition
km
Stn Press Definition
kPa
Hmdx Definition


Wind Chill Definition


Weather Definition


TIME
00:00 Legend Double Dagger 4.2 0.9 79 20 21 24.1 101.64     Cloudy
01:00 Legend Double Dagger 4.0 0.6 79 20 20 24.1 101.63     LegendNANA
02:00 Legend Double Dagger 4.0 1.3 82 19 21 24.1 101.60     LegendNANA
03:00 Legend Double Dagger 4.2 1.6 83 18 23 24.1 101.58     Cloudy
04:00 Legend Double Dagger 4.2 1.9 85 18 23 24.1 101.56     LegendNANA
05:00 Legend Double Dagger 4.1 2.4 88 17 23 24.1 101.53     LegendNANA
06:00 Legend Double Dagger 4.5 2.6 88 18 24 24.1 101.50     Mostly Cloudy
07:00 Legend Double Dagger 4.5 3.2 91 17 21 24.1 101.47     LegendNANA
08:00 Legend Double Dagger 4.8 3.8 93 18 24 24.1 101.44     LegendNANA
09:00 Legend Double Dagger 6.2 4.2 87 18 28 24.1 101.41     Mainly Clear
10:00 Legend Double Dagger 7.4 4.3 81 18 23 24.1 101.39     LegendNANA
11:00 Legend Double Dagger 7.7 3.7 75 18 28 24.1 101.35     LegendNANA
12:00 Legend Double Dagger 7.6 3.8 77 18 27 24.1 101.31     Mainly Clear
13:00 Legend Double Dagger 7.6 4.4 80 18 27 24.1 101.28     LegendNANA
14:00 Legend Double Dagger 7.6 4.1 78 18 30 24.1 101.23     LegendNANA
15:00 Legend Double Dagger 6.9 3.9 81 18 32 24.1 101.19     Mostly Cloudy
16:00 Legend Double Dagger 6.6 3.8 82 18 29 24.1 101.17     LegendNANA
17:00 Legend Double Dagger 6.0 3.2 82 18 29 24.1 101.13     LegendNANA
18:00 Legend Double Dagger 5.5 3.3 86 18 29 24.1 101.14     Mostly Cloudy
19:00 Legend Double Dagger 5.1 3.3 88 18 28 24.1 101.11     LegendNANA
20:00 Legend Double Dagger 4.8 3.4 90 17 26 24.1 101.07     LegendNANA
21:00 Legend Double Dagger 4.7 3.5 92 17 29 24.1 101.05     Mainly Clear
22:00 Legend Double Dagger 4.7 3.6 92 18 29 24.1 101.05     LegendNANA
23:00 Legend Double Dagger 4.8 3.4 91 18 30 24.1 101.03     LegendNANA

Notes on Data Quality.

Legend

  • E = Estimated
  • M = Missing
  • NA = Not Available
  • ‡ = Partner data that is not subject to review by the National Climate Archives
Date modified: